Rogers City, MI

9:03 PM EST on November 17, 2017 (GMT -0500)
Presque Isle County

Weather History for KPZQ - January, 2014

Change the Weather History Date:

Wednesday, January 1, 2014

  Actual Average (KAPN) Record (KAPN)
Temperature  
Mean Temperature 4 °F -  
Max Temperature 6 °F 28 °F 56 °F (1955)
Min Temperature 1 °F 14 °F -18 °F (1947)
Degree Days  
Heating Degree Days 62    
Moisture  
Dew Point 1 °F    
Average Humidity 84    
Maximum Humidity 90    
Minimum Humidity 75    
Precipitation  
Precipitation 0.00 in - - ()
Sea Level Pressure  
Sea Level Pressure 30.38 in    
Wind  
Wind Speed 6 mph (NW)    
Max Wind Speed 10 mph    
Max Gust Speed 17 mph    
Visibility 5 miles    
Events Snow    
Averages and records for this station are not official NWS values.
T = Trace of Precipitation, MM = Missing Value Source: NWS Daily Summary

Daily Weather History Graph

Daily Weather History Graph

Search for Another Location

Airport or City:

Trip Planner

Search our weather history database for the weather conditions in past years. The results will help you decide how hot, cold, wet, or windy it might be!

Date:

Astronomy

Jan. 01, 2014 Rise Set
Actual Time 8:15 AM EST 5:02 PM EST
Civil Twilight 7:41 AM EST 5:36 PM EST
Nautical Twilight 7:03 AM EST 6:14 PM EST
Astronomical Twilight 6:27 AM EST 6:50 PM EST
Moon 8:01 AM EST (1/1) 5:50 PM EST (1/1)
Length of Visible Light 9h 55m
Length of Day
8h 47m
New Moon, 0% of the Moon is Illuminated
Jan 1
New Moon
Jan 7
First Quarter
Jan 15
Full
Jan 24
Last Quarter
Jan 30
New

Hourly Weather History & Observations

Time (EST) Temp. Windchill Dew Point Humidity Pressure Visibility Wind Dir Wind Speed Gust Speed Precip Events Conditions
12:14 AM 2.8 °F -10.7 °F -3.3 °F 76% 30.27 in 10.0 mi West 8.1 mph - N/A   Clear
12:35 AM 3.2 °F -12.2 °F -3.1 °F 75% 30.27 in 10.0 mi West 10.4 mph - N/A   Clear
12:55 AM 3.0 °F -11.5 °F -3.1 °F 76% 30.27 in 10.0 mi West 9.2 mph 17.3 mph N/A   Clear
1:15 AM 2.8 °F -11.7 °F -2.7 °F 78% 30.27 in 10.0 mi West 9.2 mph - N/A   Clear
1:35 AM 2.5 °F -12.2 °F -2.9 °F 78% 30.28 in 10.0 mi West 9.2 mph - N/A   Clear
1:55 AM 1.9 °F -12.9 °F -3.5 °F 78% 30.29 in 10.0 mi WSW 9.2 mph - N/A   Clear
2:15 AM 1.9 °F -11.8 °F -3.3 °F 79% 30.30 in 10.0 mi West 8.1 mph - N/A   Clear
2:35 AM 2.1 °F -10.4 °F -3.1 °F 79% 30.30 in 10.0 mi West 6.9 mph - N/A   Clear
2:54 AM 2.1 °F -10.4 °F -2.6 °F 81% 30.30 in 10.0 mi West 6.9 mph - N/A   Clear
3:15 AM 2.1 °F -10.4 °F -2.4 °F 81% 30.30 in 10.0 mi West 6.9 mph - N/A   Clear
3:35 AM 2.7 °F -12.0 °F -1.8 °F 81% 30.30 in 10.0 mi West 9.2 mph - N/A   Clear
3:54 AM 2.3 °F -11.4 °F -2.2 °F 81% 30.31 in 10.0 mi West 8.1 mph - N/A   Clear
4:15 AM 2.1 °F -11.6 °F -2.2 °F 82% 30.30 in 10.0 mi West 8.1 mph - N/A   Clear
4:35 AM 1.4 °F -11.3 °F -2.7 °F 83% 30.31 in 10.0 mi WSW 6.9 mph - N/A   Clear
4:54 AM 1.2 °F -12.7 °F -2.6 °F 84% 30.31 in 10.0 mi WSW 8.1 mph - N/A   Scattered Clouds
5:15 AM 2.1 °F -12.6 °F -1.7 °F 84% 30.32 in 10.0 mi WSW 9.2 mph - N/A   Mostly Cloudy
5:35 AM 3.2 °F -10.3 °F -0.9 °F 83% 30.33 in 7.0 mi West 8.1 mph - N/A   Overcast
5:55 AM 3.6 °F -8.7 °F -0.6 °F 83% 30.34 in 5.0 mi West 6.9 mph - N/A Snow Light Snow
6:15 AM 3.7 °F -8.4 °F -0.4 °F 83% 30.34 in 3.0 mi West 6.9 mph - N/A Snow Light Snow
6:35 AM 3.2 °F -10.3 °F -0.6 °F 84% 30.34 in 10.0 mi West 8.1 mph - N/A   Mostly Cloudy
6:55 AM 3.7 °F -7.1 °F 0.1 °F 85% 30.35 in 3.0 mi West 5.8 mph - N/A Snow Light Snow
7:15 AM 4.1 °F -3.2 °F 0.7 °F 86% 30.35 in 1.0 mi West 3.5 mph - N/A Snow Snow
7:35 AM 4.5 °F -2.7 °F 0.9 °F 85% 30.36 in 1.8 mi West 3.5 mph - N/A Snow Light Snow
7:55 AM 4.1 °F - 1.0 °F 87% 30.37 in 3.0 mi Calm Calm - N/A Snow Light Snow
8:15 AM 6.3 °F -5.4 °F 3.0 °F 87% 30.38 in 5.0 mi NNE 6.9 mph - N/A Snow Light Snow
8:35 AM 5.9 °F -3.0 °F 2.7 °F 87% 30.38 in 2.5 mi NNE 4.6 mph - N/A   Overcast
8:55 AM 5.7 °F -7.2 °F 2.1 °F 85% 30.39 in 2.0 mi NNE 8.1 mph - N/A Snow Light Snow
9:15 AM 5.5 °F -7.4 °F 2.1 °F 86% 30.40 in 1.8 mi North 8.1 mph - N/A Snow Light Snow
9:35 AM 5.0 °F -6.9 °F 1.4 °F 85% 30.41 in 1.8 mi NNE 6.9 mph - N/A Snow Light Snow
9:54 AM 5.4 °F -7.6 °F 1.4 °F 84% 30.42 in 3.0 mi NNE 8.1 mph - N/A   Overcast
10:15 AM 5.4 °F -1.7 °F 0.9 °F 82% 30.44 in 3.0 mi NNE 3.5 mph - N/A   Overcast
10:35 AM 5.9 °F -7.0 °F 1.0 °F 80% 30.45 in 3.0 mi NE 8.1 mph - N/A   Haze
10:54 AM 5.9 °F -4.5 °F 1.4 °F 82% 30.45 in 1.8 mi NNE 5.8 mph - N/A Snow Light Snow
11:15 AM 5.7 °F -6.1 °F 1.2 °F 82% 30.45 in 2.0 mi NE 6.9 mph - N/A   Haze
11:35 AM 5.7 °F -7.2 °F 1.6 °F 83% 30.45 in 2.0 mi NE 8.1 mph - N/A Snow Light Snow
11:55 AM 5.9 °F -8.0 °F 1.9 °F 84% 30.44 in 1.5 mi ENE 9.2 mph - N/A Snow Light Snow
12:15 PM 5.9 °F -4.5 °F 1.2 °F 81% 30.43 in 2.5 mi ENE 5.8 mph - N/A   Haze
12:34 PM 6.1 °F -5.6 °F 1.4 °F 81% 30.43 in 4.0 mi NE 6.9 mph - N/A   Haze
12:55 PM 5.7 °F -3.2 °F 0.5 °F 79% 30.43 in 7.0 mi ENE 4.6 mph - N/A   Scattered Clouds
1:14 PM 5.9 °F -1.1 °F 0.7 °F 79% 30.42 in 10.0 mi ENE 3.5 mph - N/A   Scattered Clouds
1:35 PM 6.3 °F -0.7 °F 1.4 °F 80% 30.42 in 5.0 mi East 3.5 mph - N/A   Haze
1:55 PM 6.3 °F -0.7 °F 1.2 °F 80% 30.42 in 10.0 mi East 3.5 mph - N/A   Overcast
2:14 PM 6.3 °F -2.6 °F 1.8 °F 82% 30.41 in 4.0 mi East 4.6 mph - N/A   Overcast
2:35 PM 6.3 °F - 1.6 °F 81% 30.42 in 4.0 mi Calm Calm - N/A Snow Light Snow
2:55 PM 6.6 °F - 2.1 °F 82% 30.41 in 3.0 mi Calm Calm - N/A Snow Light Snow
3:15 PM 6.4 °F - 2.3 °F 83% 30.41 in 2.5 mi Calm Calm - N/A Snow Light Snow
3:35 PM 6.4 °F - 2.7 °F 84% 30.41 in 1.8 mi Calm Calm - N/A Snow Light Snow
3:54 PM 6.4 °F - 3.0 °F 86% 30.41 in 1.0 mi Calm Calm - N/A Snow Light Snow
4:15 PM 6.1 °F - 2.8 °F 87% 30.41 in 0.8 mi Calm Calm - N/A Snow Light Snow
4:35 PM 6.3 °F - 3.2 °F 87% 30.41 in 0.5 mi Calm Calm - N/A Snow Snow
4:55 PM 6.3 °F - 3.6 °F 89% 30.41 in 0.5 mi Calm Calm - N/A Snow Snow
5:15 PM 6.4 °F - 3.9 °F 89% 30.41 in 0.8 mi Calm Calm - N/A Snow Snow
5:35 PM 6.3 °F - 3.7 °F 89% 30.41 in 0.8 mi Calm Calm - N/A Snow Snow
5:55 PM 5.9 °F - 3.6 °F 90% 30.41 in 1.2 mi Calm Calm - N/A Snow Light Snow
6:15 PM 5.9 °F - 3.2 °F 89% 30.41 in 1.8 mi Calm Calm - N/A Snow Light Snow
6:35 PM 6.3 °F - 3.6 °F 89% 30.41 in 1.8 mi Calm Calm - N/A Snow Light Snow
6:55 PM 5.9 °F - 3.2 °F 89% 30.41 in 1.8 mi Calm Calm - N/A Snow Light Snow
7:14 PM 5.5 °F - 3.0 °F 89% 30.41 in 1.8 mi Calm Calm - N/A Snow Light Snow
7:35 PM 5.0 °F - 2.3 °F 89% 30.41 in 3.0 mi Calm Calm - N/A Snow Light Snow
7:55 PM 5.0 °F - 2.3 °F 89% 30.41 in 2.0 mi Calm Calm - N/A Snow Light Snow
8:14 PM 5.0 °F - 2.3 °F 89% 30.41 in 2.0 mi Calm Calm - N/A Snow Light Snow
8:35 PM 5.0 °F - 2.3 °F 89% 30.41 in 4.0 mi Calm Calm - N/A Snow Light Snow
8:55 PM 4.8 °F - 1.9 °F 88% 30.40 in 3.0 mi Calm Calm - N/A Snow Light Snow
9:15 PM 4.8 °F - 1.9 °F 88% 30.40 in 4.0 mi Calm Calm - N/A Snow Light Snow
9:35 PM 5.7 °F - 3.0 °F 89% 30.40 in 4.0 mi Calm Calm - N/A Snow Light Snow
9:54 PM 4.8 °F - 2.3 °F 89% 30.40 in 2.0 mi Calm Calm - N/A Snow Light Snow
10:15 PM 4.8 °F - 2.3 °F 89% 30.40 in 2.0 mi Calm Calm - N/A Snow Light Snow
10:35 PM 4.8 °F -2.3 °F 2.3 °F 89% 30.40 in 4.0 mi SW 3.5 mph - N/A Snow Light Snow
10:55 PM 4.8 °F - 2.1 °F 89% 30.40 in 2.0 mi Calm Calm - N/A Snow Light Snow
11:15 PM 5.0 °F -2.1 °F 2.3 °F 89% 30.40 in 2.0 mi SW 3.5 mph - N/A Snow Light Snow
11:35 PM 4.8 °F - 2.3 °F 89% 30.40 in 2.5 mi Calm Calm - N/A Snow Light Snow
11:54 PM 4.8 °F - 2.1 °F 89% 30.39 in 3.0 mi Calm Calm - N/A Snow Light Snow